﻿測定場所 (Monitoring sites),日付 (Measurement date),時間 (Measurement time),線量率 最大値 (max) μGy/h,線量率 最小値 (min) μGy/h,線量率 平均値 (average) μGy/h,
江戸川 (Edogawa),2014-08-31,23:01～24:00,0.0735,0.0670,0.0701,
江戸川 (Edogawa),2014-08-31,22:01～23:00,0.0736,0.0664,0.0704,
江戸川 (Edogawa),2014-08-31,21:01～22:00,0.0761,0.0667,0.0704,
江戸川 (Edogawa),2014-08-31,20:01～21:00,0.0750,0.0667,0.0703,
江戸川 (Edogawa),2014-08-31,19:01～20:00,0.0755,0.0657,0.0706,
江戸川 (Edogawa),2014-08-31,18:01～19:00,0.0746,0.0670,0.0703,
江戸川 (Edogawa),2014-08-31,17:01～18:00,0.0739,0.0680,0.0707,
江戸川 (Edogawa),2014-08-31,16:01～17:00,0.0746,0.0660,0.0707,
江戸川 (Edogawa),2014-08-31,15:01～16:00,0.0733,0.0663,0.0701,
江戸川 (Edogawa),2014-08-31,14:01～15:00,0.0738,0.0672,0.0707,
江戸川 (Edogawa),2014-08-31,13:01～14:00,0.0745,0.0665,0.0703,
江戸川 (Edogawa),2014-08-31,12:01～13:00,0.0749,0.0670,0.0707,
江戸川 (Edogawa),2014-08-31,11:01～12:00,0.0740,0.0662,0.0701,
江戸川 (Edogawa),2014-08-31,10:01～11:00,0.0740,0.0660,0.0702,
江戸川 (Edogawa),2014-08-31,09:01～10:00,0.0740,0.0669,0.0704,
江戸川 (Edogawa),2014-08-31,08:01～09:00,0.0742,0.0662,0.0703,
江戸川 (Edogawa),2014-08-31,07:01～08:00,0.0739,0.0662,0.0705,
江戸川 (Edogawa),2014-08-31,06:01～07:00,0.0746,0.0671,0.0706,
江戸川 (Edogawa),2014-08-31,05:01～06:00,0.0744,0.0673,0.0706,
江戸川 (Edogawa),2014-08-31,04:01～05:00,0.0738,0.0675,0.0705,
江戸川 (Edogawa),2014-08-31,03:01～04:00,0.0740,0.0669,0.0702,
江戸川 (Edogawa),2014-08-31,02:01～03:00,0.0736,0.0675,0.0701,
江戸川 (Edogawa),2014-08-31,01:01～02:00,0.0758,0.0668,0.0704,
江戸川 (Edogawa),2014-08-31,00:01～01:00,0.0736,0.0669,0.0703,
江戸川 (Edogawa),2014-08-30,23:01～24:00,0.0748,0.0665,0.0704,
江戸川 (Edogawa),2014-08-30,22:01～23:00,0.0739,0.0651,0.0701,
江戸川 (Edogawa),2014-08-30,21:01～22:00,0.0731,0.0670,0.0701,
江戸川 (Edogawa),2014-08-30,20:01～21:00,0.0744,0.0669,0.0702,
江戸川 (Edogawa),2014-08-30,19:01～20:00,0.0737,0.0654,0.0702,
江戸川 (Edogawa),2014-08-30,18:01～19:00,0.0730,0.0671,0.0701,
江戸川 (Edogawa),2014-08-30,17:01～18:00,0.0743,0.0658,0.0699,
江戸川 (Edogawa),2014-08-30,16:01～17:00,0.0782,0.0669,0.0705,
江戸川 (Edogawa),2014-08-30,15:01～16:00,0.0734,0.0673,0.0701,
江戸川 (Edogawa),2014-08-30,14:01～15:00,0.0736,0.0664,0.0699,
江戸川 (Edogawa),2014-08-30,13:01～14:00,0.0740,0.0664,0.0698,
江戸川 (Edogawa),2014-08-30,12:01～13:00,0.0716,0.0655,0.0692,
江戸川 (Edogawa),2014-08-30,11:01～12:00,0.0738,0.0671,0.0698,
江戸川 (Edogawa),2014-08-30,10:01～11:00,0.0723,0.0662,0.0696,
江戸川 (Edogawa),2014-08-30,09:01～10:00,0.0736,0.0665,0.0697,
江戸川 (Edogawa),2014-08-30,08:01～09:00,0.0747,0.0661,0.0711,
江戸川 (Edogawa),2014-08-30,07:01～08:00,0.0780,0.0692,0.0732,
江戸川 (Edogawa),2014-08-30,06:01～07:00,0.0794,0.0713,0.0741,
江戸川 (Edogawa),2014-08-30,05:01～06:00,0.0786,0.0693,0.0732,
江戸川 (Edogawa),2014-08-30,04:01～05:00,0.0798,0.0705,0.0734,
江戸川 (Edogawa),2014-08-30,03:01～04:00,0.0833,0.0720,0.0757,
江戸川 (Edogawa),2014-08-30,02:01～03:00,0.0844,0.0721,0.0770,
江戸川 (Edogawa),2014-08-30,01:01～02:00,0.0825,0.0661,0.0732,
江戸川 (Edogawa),2014-08-30,00:01～01:00,0.0750,0.0674,0.0709,
江戸川 (Edogawa),2014-08-29,23:01～24:00,0.0806,0.0688,0.0736,
江戸川 (Edogawa),2014-08-29,22:01～23:00,0.0849,0.0668,0.0739,
江戸川 (Edogawa),2014-08-29,21:01～22:00,0.0753,0.0668,0.0703,
江戸川 (Edogawa),2014-08-29,20:01～21:00,0.0747,0.0674,0.0708,
江戸川 (Edogawa),2014-08-29,19:01～20:00,0.0749,0.0658,0.0704,
江戸川 (Edogawa),2014-08-29,18:01～19:00,0.0745,0.0659,0.0716,
江戸川 (Edogawa),2014-08-29,17:01～18:00,0.0741,0.0675,0.0714,
江戸川 (Edogawa),2014-08-29,16:01～17:00,0.0742,0.0656,0.0703,
江戸川 (Edogawa),2014-08-29,15:01～16:00,0.0743,0.0670,0.0707,
江戸川 (Edogawa),2014-08-29,14:01～15:00,0.0736,0.0671,0.0707,
江戸川 (Edogawa),2014-08-29,13:01～14:00,0.0737,0.0666,0.0704,
江戸川 (Edogawa),2014-08-29,12:01～13:00,0.0751,0.0678,0.0707,
江戸川 (Edogawa),2014-08-29,11:01～12:00,0.0746,0.0673,0.0709,
江戸川 (Edogawa),2014-08-29,10:01～11:00,0.0738,0.0660,0.0699,
江戸川 (Edogawa),2014-08-29,09:01～10:00,0.0738,0.0659,0.0699,
江戸川 (Edogawa),2014-08-29,08:01～09:00,0.0733,0.0665,0.0703,
江戸川 (Edogawa),2014-08-29,07:01～08:00,0.0739,0.0668,0.0703,
江戸川 (Edogawa),2014-08-29,06:01～07:00,0.0733,0.0665,0.0700,
江戸川 (Edogawa),2014-08-29,05:01～06:00,0.0736,0.0669,0.0701,
江戸川 (Edogawa),2014-08-29,04:01～05:00,0.0737,0.0662,0.0699,
江戸川 (Edogawa),2014-08-29,03:01～04:00,0.0737,0.0676,0.0703,
江戸川 (Edogawa),2014-08-29,02:01～03:00,0.0734,0.0672,0.0703,
江戸川 (Edogawa),2014-08-29,01:01～02:00,0.0756,0.0669,0.0704,
江戸川 (Edogawa),2014-08-29,00:01～01:00,0.0751,0.0676,0.0717,
江戸川 (Edogawa),2014-08-28,23:01～24:00,0.0767,0.0681,0.0717,
江戸川 (Edogawa),2014-08-28,22:01～23:00,0.0749,0.0658,0.0702,
江戸川 (Edogawa),2014-08-28,21:01～22:00,0.0747,0.0664,0.0700,
江戸川 (Edogawa),2014-08-28,20:01～21:00,0.0745,0.0663,0.0702,
江戸川 (Edogawa),2014-08-28,19:01～20:00,0.0789,0.0681,0.0722,
江戸川 (Edogawa),2014-08-28,18:01～19:00,0.0781,0.0709,0.0737,
江戸川 (Edogawa),2014-08-28,17:01～18:00,0.0787,0.0686,0.0730,
江戸川 (Edogawa),2014-08-28,16:01～17:00,0.0736,0.0656,0.0704,
江戸川 (Edogawa),2014-08-28,15:01～16:00,0.0772,0.0677,0.0718,
江戸川 (Edogawa),2014-08-28,14:01～15:00,0.0741,0.0682,0.0715,
江戸川 (Edogawa),2014-08-28,13:01～14:00,0.0739,0.0674,0.0710,
江戸川 (Edogawa),2014-08-28,12:01～13:00,0.0744,0.0682,0.0719,
江戸川 (Edogawa),2014-08-28,11:01～12:00,0.0745,0.0683,0.0716,
江戸川 (Edogawa),2014-08-28,10:01～11:00,0.0760,0.0686,0.0721,
江戸川 (Edogawa),2014-08-28,09:01～10:00,0.0764,0.0693,0.0725,
江戸川 (Edogawa),2014-08-28,08:01～09:00,0.0757,0.0685,0.0728,
江戸川 (Edogawa),2014-08-28,07:01～08:00,0.0766,0.0693,0.0721,
江戸川 (Edogawa),2014-08-28,06:01～07:00,0.0768,0.0677,0.0716,
江戸川 (Edogawa),2014-08-28,05:01～06:00,0.0804,0.0693,0.0725,
江戸川 (Edogawa),2014-08-28,04:01～05:00,0.0762,0.0667,0.0713,
江戸川 (Edogawa),2014-08-28,03:01～04:00,0.0758,0.0689,0.0724,
江戸川 (Edogawa),2014-08-28,02:01～03:00,0.0779,0.0707,0.0732,
江戸川 (Edogawa),2014-08-28,01:01～02:00,0.0796,0.0708,0.0743,
江戸川 (Edogawa),2014-08-28,00:01～01:00,0.0822,0.0718,0.0773,
江戸川 (Edogawa),2014-08-27,23:01～24:00,0.0841,0.0725,0.0787,
江戸川 (Edogawa),2014-08-27,22:01～23:00,0.0869,0.0728,0.0802,
江戸川 (Edogawa),2014-08-27,21:01～22:00,0.0860,0.0721,0.0784,
江戸川 (Edogawa),2014-08-27,20:01～21:00,0.0877,0.0718,0.0778,
江戸川 (Edogawa),2014-08-27,19:01～20:00,0.0788,0.0692,0.0745,
江戸川 (Edogawa),2014-08-27,18:01～19:00,0.0780,0.0687,0.0729,
江戸川 (Edogawa),2014-08-27,17:01～18:00,0.0779,0.0685,0.0724,
江戸川 (Edogawa),2014-08-27,16:01～17:00,0.0766,0.0683,0.0720,
江戸川 (Edogawa),2014-08-27,15:01～16:00,0.0762,0.0697,0.0723,
江戸川 (Edogawa),2014-08-27,14:01～15:00,0.0765,0.0687,0.0719,
江戸川 (Edogawa),2014-08-27,13:01～14:00,0.0758,0.0696,0.0722,
江戸川 (Edogawa),2014-08-27,12:01～13:00,0.0771,0.0688,0.0727,
江戸川 (Edogawa),2014-08-27,11:01～12:00,0.0780,0.0694,0.0727,
江戸川 (Edogawa),2014-08-27,10:01～11:00,0.0763,0.0682,0.0723,
江戸川 (Edogawa),2014-08-27,09:01～10:00,0.0752,0.0688,0.0721,
江戸川 (Edogawa),2014-08-27,08:01～09:00,0.0771,0.0682,0.0719,
江戸川 (Edogawa),2014-08-27,07:01～08:00,0.0768,0.0687,0.0724,
江戸川 (Edogawa),2014-08-27,06:01～07:00,0.0747,0.0682,0.0716,
江戸川 (Edogawa),2014-08-27,05:01～06:00,0.0769,0.0677,0.0719,
江戸川 (Edogawa),2014-08-27,04:01～05:00,0.0744,0.0678,0.0720,
江戸川 (Edogawa),2014-08-27,03:01～04:00,0.0781,0.0696,0.0730,
江戸川 (Edogawa),2014-08-27,02:01～03:00,0.0771,0.0697,0.0725,
江戸川 (Edogawa),2014-08-27,01:01～02:00,0.0786,0.0699,0.0729,
江戸川 (Edogawa),2014-08-27,00:01～01:00,0.0751,0.0695,0.0723,
江戸川 (Edogawa),2014-08-26,23:01～24:00,0.0780,0.0699,0.0722,
江戸川 (Edogawa),2014-08-26,22:01～23:00,0.0749,0.0690,0.0721,
江戸川 (Edogawa),2014-08-26,21:01～22:00,0.0784,0.0683,0.0719,
江戸川 (Edogawa),2014-08-26,20:01～21:00,0.0766,0.0686,0.0724,
江戸川 (Edogawa),2014-08-26,19:01～20:00,0.0776,0.0690,0.0724,
江戸川 (Edogawa),2014-08-26,18:01～19:00,0.0762,0.0696,0.0724,
江戸川 (Edogawa),2014-08-26,17:01～18:00,0.0794,0.0703,0.0737,
江戸川 (Edogawa),2014-08-26,16:01～17:00,0.0845,0.0700,0.0772,
江戸川 (Edogawa),2014-08-26,15:01～16:00,0.0843,0.0700,0.0771,
江戸川 (Edogawa),2014-08-26,14:01～15:00,0.0825,0.0710,0.0750,
江戸川 (Edogawa),2014-08-26,13:01～14:00,0.0787,0.0706,0.0746,
江戸川 (Edogawa),2014-08-26,12:01～13:00,0.0815,0.0718,0.0748,
江戸川 (Edogawa),2014-08-26,11:01～12:00,0.0821,0.0712,0.0750,
江戸川 (Edogawa),2014-08-26,10:01～11:00,0.0817,0.0720,0.0752,
江戸川 (Edogawa),2014-08-26,09:01～10:00,0.0826,0.0699,0.0758,
江戸川 (Edogawa),2014-08-26,08:01～09:00,0.0817,0.0722,0.0758,
江戸川 (Edogawa),2014-08-26,07:01～08:00,0.0837,0.0698,0.0761,
江戸川 (Edogawa),2014-08-26,06:01～07:00,0.0843,0.0729,0.0778,
江戸川 (Edogawa),2014-08-26,05:01～06:00,0.0822,0.0700,0.0749,
江戸川 (Edogawa),2014-08-26,04:01～05:00,0.0830,0.0717,0.0752,
江戸川 (Edogawa),2014-08-26,03:01～04:00,0.0815,0.0711,0.0750,
江戸川 (Edogawa),2014-08-26,02:01～03:00,0.0829,0.0707,0.0751,
江戸川 (Edogawa),2014-08-26,01:01～02:00,0.0796,0.0705,0.0742,
江戸川 (Edogawa),2014-08-26,00:01～01:00,0.0805,0.0716,0.0746,
江戸川 (Edogawa),2014-08-25,23:01～24:00,0.0803,0.0707,0.0748,
江戸川 (Edogawa),2014-08-25,22:01～23:00,0.0799,0.0705,0.0744,
江戸川 (Edogawa),2014-08-25,21:01～22:00,0.0800,0.0705,0.0743,
江戸川 (Edogawa),2014-08-25,20:01～21:00,0.0817,0.0711,0.0753,
江戸川 (Edogawa),2014-08-25,19:01～20:00,0.0793,0.0706,0.0745,
江戸川 (Edogawa),2014-08-25,18:01～19:00,0.0803,0.0713,0.0745,
江戸川 (Edogawa),2014-08-25,17:01～18:00,0.0805,0.0714,0.0747,
江戸川 (Edogawa),2014-08-25,16:01～17:00,0.0798,0.0711,0.0747,
江戸川 (Edogawa),2014-08-25,15:01～16:00,0.0792,0.0702,0.0748,
江戸川 (Edogawa),2014-08-25,14:01～15:00,0.0798,0.0701,0.0742,
江戸川 (Edogawa),2014-08-25,13:01～14:00,0.0800,0.0701,0.0744,
江戸川 (Edogawa),2014-08-25,12:01～13:00,0.0818,0.0705,0.0748,
江戸川 (Edogawa),2014-08-25,11:01～12:00,0.0788,0.0706,0.0746,
江戸川 (Edogawa),2014-08-25,10:01～11:00,0.0807,0.0716,0.0748,
江戸川 (Edogawa),2014-08-25,09:01～10:00,0.0788,0.0704,0.0745,
江戸川 (Edogawa),2014-08-25,08:01～09:00,0.0847,0.0717,0.0762,
江戸川 (Edogawa),2014-08-25,07:01～08:00,0.0815,0.0715,0.0763,
江戸川 (Edogawa),2014-08-25,06:01～07:00,0.0802,0.0715,0.0754,
江戸川 (Edogawa),2014-08-25,05:01～06:00,0.0850,0.0716,0.0757,
江戸川 (Edogawa),2014-08-25,04:01～05:00,0.0788,0.0709,0.0750,
江戸川 (Edogawa),2014-08-25,03:01～04:00,0.0832,0.0712,0.0750,
江戸川 (Edogawa),2014-08-25,02:01～03:00,0.0819,0.0696,0.0749,
江戸川 (Edogawa),2014-08-25,01:01～02:00,0.0794,0.0709,0.0744,
江戸川 (Edogawa),2014-08-25,00:01～01:00,0.0797,0.0711,0.0746,
